Regional Weather Roundup
Issued by NWS Newport/Morehead, NC

Current Version | Previous Version | Graphics & Text | Print | Product List | Glossary Off
Versions: 1 2 3 4 5 6 7 8 9 10 11 12 13 14 15 16 17 18 19 20 21 22 23 24 25 26 27 28 29 30 31 32 33 34 35 36 37 38 39 40 41 42 43 44 45 46 47 48 49 50
000 ASUS42 KMHX 171413 RWRMHX WEATHER ROUNDUP FOR EASTERN NORTH CAROLINA NATIONAL WEATHER SERVICE NEWPORT/MOREHEAD CITY NC 900 AM EST WED JAN 17 2018 NOTE: "FAIR" INDICATES FEW OR NO CLOUDS BELOW 12,000 FEET WITH NO SIGNIFICANT WEATHER AND/OR OBSTRUCTIONS TO VISIBILITY NCZ015>017-031-032-045>047-102-103-171500- NORTH COAST CITY SKY/WX TMP DP RH WIND PRES REMARKS EDENTON NOT AVBL ELIZABETH CITY FAIR 38 38 100 N10 30.30R KITTY HAWK FAIR N/A N/A N/A CALM 30.26F HAZE MANTEO FAIR 37 35 92 NE5 30.28F $$ NCZ045>047-081-094-103-104-171500- CENTRAL COAST CITY SKY/WX TMP DP RH WIND PRES REMARKS FRISCO LGT RAIN 41 38 89 VRB5 30.27S $$ NCZ095-097-098-100-101-171500- SOUTHERN COAST CITY SKY/WX TMP DP RH WIND PRES REMARKS BEAUFORT PTSUNNY 41 36 82 NE6 30.26F CEDAR ISLAND NOT AVBL JACKSONVILLE FAIR 38 36 92 CALM 30.25F PINEY ISLAND NOT AVBL WILMINGTON FAIR 39 35 86 CALM 30.25S $$ NCZ011>013-027>030-043-044-078>080-089-090>093-098-171500- COASTAL PLAIN CITY SKY/WX TMP DP RH WIND PRES REMARKS AHOSKIE CLOUDY 33 30 89 N8 30.31S CLINTON FAIR 37 31 80 N3 30.25F ELIZABETHTOWN NOT AVBL GOLDSBORO CLOUDY 37 27 67 CALM 30.25S GREENVILLE FAIR 37 32 81 N3 30.28S HAVELOCK MOSUNNY 38 36 92 E3 30.27F KENANSVILLE CLOUDY 37 32 81 CALM 30.26R KINSTON FAIR 36 32 87 N3 30.27S NEW BERN FAIR 32 31 96 CALM 30.28F RICHLANDS FAIR 38 33 82 CALM 30.26R ROCKY MOUNT CLOUDY 36 30 79 CALM 30.28F WASHINGTON FAIR 36 33 90 CALM 30.28R WHITEVILLE PTSUNNY 39 34 84 CALM 30.22F $$ AMZ130-135-150-152-154-156-158-170-250-252-270-ANZ085-086-088-633-658-670-171500- MARINE OBSERVATIONS STATION/POSITION TIME TEMP WIND PRES WAVE SWELL AIR SEA DIR/SP/G HT/PER HT/PER (UTC) (F) (DEG/KT/KT) (MB) (FT/S) (FT/S) CHESAPEAKE LIGHT NOT AVBL 64 E VA BEACH 1350 45 54 350/ 16/ 17 1025.1 6/11 5/11 DUCK 1342 37 39 350/ 10/ 12 1024.8 2 E DUCK 1400 40 N/A 4/12 3/12 OREGON INLET 1342 38 41 330/ 4/ 6 1025.2 13E OREGON INLT 1348 45 N/A 6/11 7/11 HATTERAS CG 1342 40 47 20/ 7/ 8 1024.8 DIAMOND BUOY 1350 50 71 360/ 14/ 17 1025.2 6/11 5/11 CAPE LOOKOUT 1300 20/ 6/ 7 1025.2 BEAUFORT LAB 1342 41 46 50/ 4/ 6 1024.8 30 SE NEW RVR IN NOT AVBL 30 SE NEW RVR IN 1400 59 N/A 4/11 3/11 27 SE WRIGHTSVLE NOT AVBL 5 SE WRIGHTSVLE 1308 47 47 70/ 4/ 6 1023.8 225 S CAPE HAT 1250 69 70 130/ 12/ 14 1021.5 8/11 7/11 41 SE CHARLESTON 1350 60 69 20/ 2/ 4 1023.3 5/11 5/11 $$

USA.gov is the U.S. government's official web portal to all federal, state and local government web resources and services.